Regional Weather Roundup
Issued by NWS

Home | Current Version | Previous Version | Graphics & Text | Print | Product List | Glossary On
Versions: 1 2 3 4 5 6 7 8 9 10 11 12 13 14 15 16 17 18 19 20 21 22 23 24 25 26 27 28 29 30 31 32 33 34 35 36 37 38 39 40 41 42 43 44 45 46 47 48 49 50
000
ASUS43 KOAX 270710
RWRNE

WEATHER ROUNDUP FOR NEBRASKA
NATIONAL WEATHER SERVICE OMAHA NE
200 AM CDT TUE SEP 27 2016

NOTES: SATELLITE DATA IS BEING USED TO AUGMENT CLOUD COVER ABOVE
       12000 FEET.
       "FAIR" INDICATES FEW OR NO CLOUDS BELOW 12,000 FEET WITH NO
       SIGNIFICANT WEATHER AND/OR OBSTRUCTIONS TO VISIBILITY.

  * THESE STATIONS DO NOT REPORT WEATHER SUCH AS RAIN...SNOW OR FOG.

NEZ001>004-019>022-054>056-270800-
NEBRASKA PANHANDLE

CITY           SKY/WX    TMP DP  RH WIND       PRES   REMARKS
SCOTTSBLUFF    CLEAR     48  42  80 N7        30.23F
ALLIANCE       CLOUDY    38  36  92 W7        30.21F WCI  33
CHADRON        CLEAR     45  41  86 SW5       30.19F
KIMBALL        CLEAR     44  39  85 W6        30.28F
SIDNEY         CLEAR     46  40  79 NW7       30.26F
$$

NEZ057>060-069>072-079>082-270800-
SOUTHWEST NEBRASKA

CITY           SKY/WX    TMP DP  RH WIND       PRES   REMARKS
NORTH PLATTE   CLEAR     42  39  89 CALM      30.17F
IMPERIAL       CLEAR     52  40  63 NW5       30.20F
LEXINGTON      CLEAR     46  41  84 NW3       30.15S
MCCOOK         CLEAR     49  42  77 W9        30.16S
OGALLALA       CLEAR     45  41  88 W6        30.21S
$$

NEZ005>010-023>029-035>040-094-270800-
NORTH CENTRAL NEBRASKA

CITY           SKY/WX    TMP DP  RH WIND       PRES   REMARKS
VALENTINE      CLOUDY    48  38  68 W8        30.14S
AINSWORTH      CLEAR     47  41  77 W7        30.14S
BROKEN BOW     CLEAR     46  41  82 CALM      30.14S
O`NEILL        CLEAR     49  41  75 CALM      30.11S
ORD            CLEAR     44  39  82 CALM      30.10F
THEDFORD       CLOUDY    46  41  83 NW3       30.17F
$$

NEZ041-046>049-061>064-073>077-083>087-270800-
SOUTH CENTRAL NEBRASKA

CITY           SKY/WX    TMP DP  RH WIND       PRES   REMARKS
GRAND ISLAND   CLEAR     50  43  77 W5        30.11S
AURORA         CLEAR     49  46  87 SW7       30.10S
HASTINGS       CLEAR     53  42  66 CALM      30.12F
HEBRON         CLEAR     47  46  94 CALM      30.10F
HOLDREGE       CLEAR     47  42  84 CALM      30.13S
KEARNEY *      CLEAR     50  39  66 CALM      30.12F
YORK           CLEAR     48  45  87 W7        30.09F
$$

NEZ011>018-030>034-042>045-270800-
NORTHEAST NEBRASKA

CITY           SKY/WX    TMP DP  RH WIND       PRES   REMARKS
NORFOLK        CLEAR     48  42  80 CALM      30.08R
ALBION         CLEAR     44  41  91 NW5       30.10S
BLAIR          CLEAR     57  45  64 W6        30.05S
FREMONT        CLEAR     49  45  86 W3        30.06F
TEKAMAH        CLEAR     52  44  74 W3        30.05S
WAYNE          CLEAR     45  43  92 S3        30.08S
$$

NEZ050>053-065>068-078-088>093-270800-
SOUTHEAST NEBRASKA

CITY           SKY/WX    TMP DP  RH WIND       PRES   REMARKS
LINCOLN        CLEAR     52  46  80 CALM      30.09S
OMAHA EPPLEY   CLEAR     54  48  80 SE3       30.05S
BEATRICE       CLEAR     51  47  87 CALM      30.09F
FALLS CITY     CLEAR     56  47  71 W9        30.07F
NEBRASKA CITY  CLEAR     54  38  55 W7        30.07S
PLATTSMOUTH    CLEAR     56  40  54 W5        30.06S
$$

NEZ044-045-051>053-067-270800-
OMAHA AREA

CITY           SKY/WX    TMP DP  RH WIND       PRES   REMARKS
OMAHA EPPLEY   CLEAR     54  48  80 SE3       30.05S
BLAIR          CLEAR     57  45  64 W6        30.05S
FREMONT        CLEAR     49  45  86 W3        30.06F
MILLARD        CLEAR     51  49  92 CALM      30.06S
OFFUTT AFB     CLEAR     50  47  89 CALM      30.04F
PLATTSMOUTH    CLEAR     56  40  54 W5        30.06S
WAHOO          FAIR      49  46  90 CALM      30.07S
$$




USA.gov is the U.S. government's official web portal to all federal, state and local government web resources and services.